Weather History for KSME - February, 2013

Change the Weather History Date:

Friday, February 1, 2013

  Actual Average (KLOZ) Record (KLOZ)
Temperature  
Mean Temperature 22 °F 37 °F  
Max Temperature 30 °F 46 °F 71 °F (1988)
Min Temperature 14 °F 27 °F -11 °F (1971)
Degree Days  
Heating Degree Days 43 28  
Month to date heating degree days 28  
Since 1 July heating degree days 2591  
Cooling Degree Days 0 0  
Month to date cooling degree days 0  
Year to date cooling degree days 0  
Moisture  
Dew Point 9 °F    
Average Humidity 63    
Maximum Humidity 86    
Minimum Humidity 50    
Precipitation  
Precipitation 0.00 in 0.13 in 2.09 in (1981)
Month to date precipitation 0.13  
Year to date precipitation 3.67  
Sea Level Pressure  
Sea Level Pressure 30.37 in    
Wind  
Wind Speed 3 mph (WNW)    
Max Wind Speed 22 mph    
Max Gust Speed 32 mph    
Visibility 10 miles    
Events Snow    
T = Trace of Precipitation, MM = Missing Value Source: NWS Daily Summary

Daily Weather History Graph

Daily Weather History Graph

Search for Another Location

Airport or City:

Trip Planner

Search our weather history database for the weather conditions in past years. The results will help you decide how hot, cold, wet, or windy it might be!

Date:

Astronomy

Feb. 01, 2013 Rise Set
Actual Time 7:40 AM EST 6:03 PM EST
Civil Twilight 7:13 AM EST 6:31 PM EST
Nautical Twilight 6:42 AM EST 7:02 PM EST
Astronomical Twilight 6:11 AM EST 7:32 PM EST
Moon 11:59 PM EST (2/1) 10:23 AM EST (2/1)
Length of Visible Light 11h 17m
Length of Day
10h 22m
Waning Gibbous, 70% of the Moon is Illuminated
Feb 1
Waning Gibbous
Feb 3
Last Quarter
Feb 10
New
Feb 17
First Quarter
Feb 25
Full

Hourly Weather History & Observations

Time (EST) Temp. Windchill Dew Point Humidity Pressure Visibility Wind Dir Wind Speed Gust Speed Precip Events Conditions
12:15 AM 30.2 °F 17.1 °F 26.6 °F 86% 30.06 in 3.0 mi NW 21.9 mph 32.2 mph N/A Snow Light Snow
12:35 AM 28.4 °F - 23.0 °F 80% 30.08 in 4.0 mi Calm Calm - N/A Snow Light Snow
1:15 AM 26.6 °F - 17.6 °F 69% 30.14 in 10.0 mi Calm Calm - N/A   Overcast
1:35 AM 24.8 °F - 17.6 °F 74% 30.16 in 10.0 mi Calm Calm - N/A   Overcast
2:15 AM 23.0 °F - 12.2 °F 63% 30.20 in 10.0 mi Calm Calm - N/A   Overcast
2:35 AM 21.2 °F - 12.2 °F 68% 30.21 in 10.0 mi Calm Calm - N/A   Overcast
2:55 AM 21.2 °F - 10.4 °F 63% 30.23 in 10.0 mi Calm Calm - N/A   Overcast
3:15 AM 19.4 °F - 8.6 °F 63% 30.25 in 10.0 mi Calm Calm - N/A   Overcast
3:35 AM 19.4 °F - 8.6 °F 63% 30.27 in 10.0 mi Calm Calm - N/A   Overcast
3:55 AM 17.6 °F - 8.6 °F 68% 30.28 in 10.0 mi Calm Calm - N/A   Overcast
4:15 AM 17.6 °F - 5.0 °F 58% 30.28 in 10.0 mi Calm Calm - N/A   Overcast
4:35 AM 17.6 °F - 5.0 °F 58% 30.29 in 10.0 mi Calm Calm - N/A   Overcast
5:15 AM 15.8 °F - 3.2 °F 58% 30.31 in 10.0 mi Calm Calm - N/A   Mostly Cloudy
5:35 AM 15.8 °F - 3.2 °F 58% 30.32 in 10.0 mi Calm Calm - N/A   Overcast
6:15 AM 15.8 °F - 3.2 °F 58% 30.33 in 10.0 mi Calm Calm - N/A   Clear
6:35 AM 14.0 °F - 3.2 °F 62% 30.34 in 10.0 mi Calm Calm - N/A   Clear
6:55 AM 14.0 °F - 5.0 °F 67% 30.35 in 10.0 mi Calm Calm - N/A   Scattered Clouds
7:15 AM 14.0 °F - 5.0 °F 67% 30.36 in 10.0 mi Calm Calm - N/A   Scattered Clouds
7:35 AM 14.0 °F - 5.0 °F 67% 30.37 in 10.0 mi Calm Calm - N/A   Scattered Clouds
8:15 AM 14.0 °F - 5.0 °F 67% 30.39 in 10.0 mi Calm Calm - N/A   Scattered Clouds
8:35 AM 15.8 °F - 6.8 °F 68% 30.40 in 10.0 mi Calm Calm - N/A   Scattered Clouds
8:55 AM 15.8 °F - 5.0 °F 62% 30.41 in 10.0 mi Calm Calm - N/A   Mostly Cloudy
9:15 AM 15.8 °F - 5.0 °F 62% 30.42 in 10.0 mi Calm Calm - N/A   Overcast
9:35 AM 14.0 °F - 3.2 °F 62% 30.43 in 10.0 mi Calm Calm - N/A   Mostly Cloudy
9:55 AM 17.6 °F - 5.0 °F 58% 30.43 in 10.0 mi Calm Calm - N/A   Mostly Cloudy
10:15 AM 17.6 °F - 6.8 °F 63% 30.44 in 10.0 mi Calm Calm - N/A   Overcast
10:35 AM 17.6 °F - 6.8 °F 63% 30.45 in 10.0 mi Calm Calm - N/A   Overcast
10:55 AM 17.6 °F - 5.0 °F 58% 30.45 in 10.0 mi Calm Calm - N/A   Mostly Cloudy
11:15 AM 17.6 °F - 6.8 °F 63% 30.46 in 10.0 mi Calm Calm - N/A   Scattered Clouds
11:35 AM 17.6 °F - 6.8 °F 63% 30.46 in 10.0 mi Calm Calm - N/A   Scattered Clouds
11:55 AM 19.4 °F - 8.6 °F 63% 30.47 in 10.0 mi Calm Calm - N/A   Mostly Cloudy
12:15 PM 19.4 °F - 8.6 °F 63% 30.46 in 10.0 mi Calm Calm - N/A   Scattered Clouds
12:35 PM 19.4 °F - 8.6 °F 63% 30.45 in 10.0 mi Calm Calm - N/A   Scattered Clouds
1:15 PM 21.2 °F - 8.6 °F 58% 30.44 in 10.0 mi Calm Calm - N/A   Scattered Clouds
1:35 PM 21.2 °F - 8.6 °F 58% 30.43 in 10.0 mi Calm Calm - N/A   Scattered Clouds
1:55 PM 23.0 °F - 8.6 °F 54% 30.43 in 10.0 mi Calm Calm - N/A   Scattered Clouds
2:15 PM 23.0 °F 17.0 °F 8.6 °F 54% 30.42 in 10.0 mi NW 4.6 mph - N/A   Scattered Clouds
2:35 PM 23.0 °F 17.0 °F 8.6 °F 54% 30.41 in 10.0 mi NW 4.6 mph - N/A   Scattered Clouds
2:55 PM 23.0 °F 13.9 °F 8.6 °F 54% 30.41 in 10.0 mi NW 8.1 mph - N/A   Scattered Clouds
3:15 PM 23.0 °F 17.0 °F 8.6 °F 54% 30.40 in 10.0 mi West 4.6 mph - N/A   Scattered Clouds
3:35 PM 24.8 °F 16.9 °F 10.4 °F 54% 30.41 in 10.0 mi WNW 6.9 mph - N/A   Scattered Clouds
3:55 PM 24.8 °F 16.1 °F 8.6 °F 50% 30.40 in 10.0 mi West 8.1 mph - N/A   Scattered Clouds
4:15 PM 24.8 °F 19.1 °F 8.6 °F 50% 30.40 in 10.0 mi NW 4.6 mph - N/A   Clear
4:35 PM 24.8 °F 20.5 °F 8.6 °F 50% 30.40 in 10.0 mi West 3.5 mph - N/A   Clear
5:15 PM 24.8 °F 16.9 °F 8.6 °F 50% 30.39 in 10.0 mi West 6.9 mph - N/A   Clear
5:35 PM 24.8 °F 16.9 °F 8.6 °F 50% 30.39 in 10.0 mi West 6.9 mph - N/A   Clear
5:55 PM 23.0 °F - 8.6 °F 54% 30.40 in 10.0 mi Calm Calm - N/A   Clear
6:15 PM 23.0 °F - 8.6 °F 54% 30.40 in 10.0 mi Calm Calm - N/A   Clear
6:35 PM 23.0 °F - 8.6 °F 54% 30.40 in 10.0 mi Calm Calm - N/A   Clear
6:55 PM 23.0 °F - 8.6 °F 54% 30.40 in 10.0 mi Calm Calm - N/A   Clear
7:15 PM 21.2 °F - 10.4 °F 63% 30.41 in 10.0 mi Calm Calm - N/A   Clear
7:35 PM 21.2 °F - 10.4 °F 63% 30.41 in 10.0 mi Calm Calm - N/A   Clear
7:55 PM 21.2 °F - 10.4 °F 63% 30.41 in 10.0 mi Calm Calm - N/A   Clear
8:15 PM 21.2 °F - 10.4 °F 63% 30.41 in 10.0 mi Calm Calm - N/A   Clear
8:35 PM 21.2 °F - 10.4 °F 63% 30.41 in 10.0 mi Calm Calm - N/A   Clear
8:55 PM 21.2 °F - 10.4 °F 63% 30.41 in 10.0 mi Calm Calm - N/A   Clear
9:15 PM 21.2 °F - 10.4 °F 63% 30.40 in 10.0 mi Calm Calm - N/A   Clear
9:35 PM 19.4 °F - 12.2 °F 74% 30.39 in 10.0 mi Calm Calm - N/A   Clear
9:55 PM 19.4 °F - 12.2 °F 74% 30.39 in 10.0 mi Calm Calm - N/A   Clear
10:15 PM 19.4 °F - 14.0 °F 80% 30.38 in 10.0 mi Calm Calm - N/A   Clear
10:35 PM 19.4 °F - 14.0 °F 80% 30.37 in 10.0 mi Calm Calm - N/A   Clear
10:55 PM 21.2 °F - 14.0 °F 74% 30.37 in 10.0 mi Calm Calm - N/A   Clear
11:15 PM 21.2 °F - 12.2 °F 68% 30.38 in 10.0 mi Calm Calm - N/A   Clear
11:35 PM 21.2 °F - 12.2 °F 68% 30.37 in 10.0 mi Calm Calm - N/A   Clear
11:55 PM 21.2 °F 16.4 °F 14.0 °F 74% 30.35 in 10.0 mi SE 3.5 mph - N/A   Clear